Time,TemperatureF,DewpointF,PressureIn,WindDirection,WindDirectionDegrees,WindSpeedMPH,WindSpeedGustMPH,Humidity,HourlyPrecipIn,Conditions,Clouds,dailyrainin,SolarRadiationWatts/m^2,SoftwareType,DateUTC
2013-08-15 00:02:00,61.0,59.0,-100.00,SSW,192,1.0,4.0,93,0.00,,,0.02,0.000000,,2013-08-15 07:02:00,
2013-08-15 00:11:00,61.0,59.0,-100.00,SSW,192,1.0,4.0,93,0.00,,,0.02,0.000000,,2013-08-15 07:11:00,
2013-08-15 00:21:00,61.0,59.0,-100.00,SSW,192,1.0,4.0,93,0.00,,,0.02,0.000000,,2013-08-15 07:21:00,
2013-08-15 00:32:00,61.0,59.0,-100.00,SSW,192,1.0,4.0,93,0.00,,,0.02,0.000000,,2013-08-15 07:32:00,
2013-08-15 00:52:00,61.0,59.0,-100.00,SSW,206,0.0,5.0,94,0.00,,,0.02,0.000000,,2013-08-15 07:52:00,
2013-08-15 01:02:00,61.0,59.0,-100.00,SSW,206,0.0,5.0,94,0.00,,,0.02,0.000000,,2013-08-15 08:02:00,
2013-08-15 01:11:00,61.0,59.0,-100.00,SSW,206,0.0,5.0,94,0.00,,,0.02,0.000000,,2013-08-15 08:11:00,
2013-08-15 01:21:00,61.0,59.0,-100.00,SSW,206,0.0,5.0,94,0.00,,,0.02,0.000000,,2013-08-15 08:21:00,
2013-08-15 01:32:00,61.0,59.0,-100.00,SSW,206,0.0,5.0,94,0.00,,,0.02,0.000000,,2013-08-15 08:32:00,
2013-08-15 01:33:00,60.0,59.0,-100.00,West,261,0.0,1.0,96,0.00,,,0.02,0.000000,,2013-08-15 08:33:00,
2013-08-15 01:52:00,60.0,59.0,-100.00,West,261,0.0,1.0,96,0.00,,,0.02,0.000000,,2013-08-15 08:52:00,
2013-08-15 02:01:00,60.0,59.0,-100.00,West,261,0.0,1.0,96,0.00,,,0.02,0.000000,,2013-08-15 09:01:00,
2013-08-15 02:11:00,60.0,59.0,-100.00,West,261,0.0,1.0,96,0.00,,,0.02,0.000000,,2013-08-15 09:11:00,
2013-08-15 02:21:00,60.0,59.0,-100.00,West,261,0.0,1.0,96,0.00,,,0.02,0.000000,,2013-08-15 09:21:00,
2013-08-15 02:53:00,61.0,59.0,-100.00,SSW,195,1.0,5.0,94,0.00,,,0.02,0.000000,,2013-08-15 09:53:00,
2013-08-15 03:03:00,61.0,59.0,-100.00,SSW,195,1.0,5.0,94,0.00,,,0.02,0.000000,,2013-08-15 10:03:00,
2013-08-15 03:12:00,61.0,59.0,-100.00,SSW,195,1.0,5.0,94,0.00,,,0.02,0.000000,,2013-08-15 10:12:00,
2013-08-15 03:22:00,61.0,59.0,-100.00,SSW,195,1.0,5.0,94,0.00,,,0.02,0.000000,,2013-08-15 10:22:00,
2013-08-15 03:32:00,61.0,59.0,-100.00,SSW,195,1.0,5.0,94,0.00,,,0.02,0.000000,,2013-08-15 10:32:00,
2013-08-15 03:52:00,60.0,59.0,-100.00,WNW,291,0.0,3.0,96,0.00,,,0.02,0.000000,,2013-08-15 10:52:00,
2013-08-15 04:02:00,60.0,59.0,-100.00,WNW,291,0.0,3.0,96,0.00,,,0.02,0.000000,,2013-08-15 11:02:00,
2013-08-15 04:11:00,60.0,59.0,-100.00,WNW,291,0.0,3.0,96,0.00,,,0.02,0.000000,,2013-08-15 11:11:00,
2013-08-15 04:22:00,60.0,59.0,-100.00,WNW,291,0.0,3.0,96,0.00,,,0.02,0.000000,,2013-08-15 11:22:00,
2013-08-15 04:32:00,60.0,59.0,-100.00,WNW,291,0.0,3.0,96,0.00,,,0.02,0.000000,,2013-08-15 11:32:00,
2013-08-15 04:52:00,60.0,59.0,-100.00,West,263,0.0,2.0,97,0.01,,,0.03,0.000000,,2013-08-15 11:52:00,
2013-08-15 05:01:00,60.0,59.0,-100.00,West,263,0.0,2.0,97,0.01,,,0.03,0.000000,,2013-08-15 12:01:00,
2013-08-15 05:11:00,60.0,59.0,-100.00,West,263,0.0,2.0,97,0.01,,,0.03,0.000000,,2013-08-15 12:11:00,
2013-08-15 05:21:00,60.0,59.0,-100.00,West,263,0.0,2.0,97,0.01,,,0.03,0.000000,,2013-08-15 12:21:00,
2013-08-15 05:31:00,60.0,59.0,-100.00,West,263,0.0,2.0,97,0.01,,,0.03,0.000000,,2013-08-15 12:31:00,
2013-08-15 05:52:00,59.0,58.0,-100.00,West,276,0.0,2.0,98,0.00,,,0.03,0.000000,,2013-08-15 12:52:00,
2013-08-15 06:01:00,59.0,58.0,-100.00,West,276,0.0,2.0,98,0.00,,,0.03,0.000000,,2013-08-15 13:01:00,
2013-08-15 06:11:00,59.0,58.0,-100.00,West,276,0.0,2.0,98,0.00,,,0.03,0.000000,,2013-08-15 13:11:00,
2013-08-15 06:21:00,59.0,58.0,-100.00,West,276,0.0,2.0,98,0.00,,,0.03,0.000000,,2013-08-15 13:21:00,
2013-08-15 06:32:00,59.0,58.0,-100.00,West,276,0.0,2.0,98,0.00,,,0.03,0.000000,,2013-08-15 13:32:00,
2013-08-15 06:52:00,59.0,58.0,-100.00,West,261,1.0,3.0,98,0.00,,,0.03,1.000000,,2013-08-15 13:52:00,
2013-08-15 07:01:00,59.0,58.0,-100.00,West,261,1.0,3.0,98,0.00,,,0.03,1.000000,,2013-08-15 14:01:00,
2013-08-15 07:12:00,59.0,58.0,-100.00,West,261,1.0,3.0,98,0.00,,,0.03,1.000000,,2013-08-15 14:12:00,
2013-08-15 07:22:00,59.0,58.0,-100.00,West,261,1.0,3.0,98,0.00,,,0.03,1.000000,,2013-08-15 14:22:00,
2013-08-15 07:32:00,59.0,58.0,-100.00,West,261,1.0,3.0,98,0.00,,,0.03,1.000000,,2013-08-15 14:32:00,
2013-08-15 07:33:00,59.0,58.0,-100.00,West,268,1.0,3.0,98,0.01,,,0.04,19.000000,,2013-08-15 14:33:00,
2013-08-15 08:23:00,59.0,58.0,-100.00,West,268,1.0,3.0,98,0.01,,,0.04,19.000000,,2013-08-15 15:23:00,
2013-08-15 08:33:00,60.0,59.0,-100.00,NNW,336,1.0,3.0,97,0.02,,,0.06,50.000000,,2013-08-15 15:33:00,
2013-08-15 08:54:00,60.0,59.0,-100.00,NNW,336,1.0,3.0,97,0.02,,,0.06,50.000000,,2013-08-15 15:54:00,
2013-08-15 09:03:00,60.0,59.0,-100.00,NNW,336,1.0,3.0,97,0.02,,,0.06,50.000000,,2013-08-15 16:03:00,
2013-08-15 09:13:00,60.0,59.0,-100.00,NNW,336,1.0,3.0,97,0.02,,,0.06,50.000000,,2013-08-15 16:13:00,
2013-08-15 09:25:00,60.0,59.0,-100.00,NNW,336,1.0,3.0,97,0.02,,,0.06,50.000000,,2013-08-15 16:25:00,
2013-08-15 09:33:00,63.0,60.0,-100.00,SSE,154,0.0,3.0,91,0.00,,,-99.99,169.000000,,2013-08-15 16:33:00,
2013-08-15 09:55:00,63.0,60.0,-100.00,SSE,154,0.0,3.0,91,0.00,,,-99.99,169.000000,,2013-08-15 16:55:00,
2013-08-15 10:06:00,63.0,60.0,-100.00,SSE,154,0.0,3.0,91,0.00,,,-99.99,169.000000,,2013-08-15 17:06:00,
2013-08-15 10:18:00,63.0,60.0,-100.00,SSE,154,0.0,3.0,91,0.00,,,-99.99,169.000000,,2013-08-15 17:18:00,
2013-08-15 10:30:00,63.0,-99.9,-100.00,SSE,154,0.0,3.0,91,0.00,,,-99.99,169.000000,,2013-08-15 17:30:00,
2013-08-15 10:33:00,-999.0,-99.9,-100.00,SSW,195,1.0,3.0,-999,0.00,,,0.06,179.000000,,2013-08-15 17:33:00,
2013-08-15 11:00:00,-999.0,-99.9,-100.00,SSW,195,1.0,3.0,-999,-99.99,,,-99.99,179.000000,,2013-08-15 18:00:00,
2013-08-15 11:10:00,65.0,61.0,-100.00,SSW,195,1.0,3.0,88,0.00,,,0.06,179.000000,,2013-08-15 18:10:00,
2013-08-15 11:33:00,-999.0,-99.9,-100.00,SW,218,1.0,7.0,-999,-99.99,,,-99.99,257.000000,,2013-08-15 18:33:00,
2013-08-15 12:06:00,-999.0,-99.9,-100.00,SW,218,1.0,7.0,-999,0.00,,,0.06,257.000000,,2013-08-15 19:06:00,
2013-08-15 12:17:00,66.0,60.0,-100.00,SW,218,1.0,7.0,82,0.00,,,0.06,257.000000,,2013-08-15 19:17:00,
2013-08-15 12:33:00,68.0,62.0,-100.00,SW,218,1.0,7.0,82,0.00,,,0.06,238.000000,,2013-08-15 19:33:00,
2013-08-15 13:11:00,68.0,62.0,-100.00,SW,218,1.0,7.0,82,0.00,,,0.06,238.000000,,2013-08-15 20:11:00,
2013-08-15 13:27:00,68.0,62.0,-100.00,SW,218,1.0,7.0,82,0.00,,,0.06,238.000000,,2013-08-15 20:27:00,
2013-08-15 13:59:00,66.0,61.0,-100.00,West,267,2.0,7.0,83,0.00,,,0.06,286.000000,,2013-08-15 20:59:00,
2013-08-15 14:05:00,66.0,61.0,-100.00,West,267,2.0,7.0,83,0.00,,,0.06,286.000000,,2013-08-15 21:05:00,
2013-08-15 14:17:00,66.0,61.0,-100.00,West,267,2.0,7.0,83,0.00,,,0.06,286.000000,,2013-08-15 21:17:00,
2013-08-15 14:33:00,65.0,62.0,-100.00,WNW,287,1.0,4.0,89,0.01,,,0.07,156.000000,,2013-08-15 21:33:00,
2013-08-15 14:57:00,65.0,62.0,-100.00,WNW,287,1.0,4.0,89,0.01,,,0.07,156.000000,,2013-08-15 21:57:00,
2013-08-15 15:09:00,65.0,62.0,-100.00,WNW,287,1.0,4.0,89,0.01,,,0.07,156.000000,,2013-08-15 22:09:00,
2013-08-15 15:17:00,65.0,62.0,-100.00,WNW,287,1.0,4.0,89,0.01,,,0.07,156.000000,,2013-08-15 22:17:00,
2013-08-15 15:29:00,65.0,62.0,-100.00,WNW,287,1.0,4.0,89,0.01,,,0.07,156.000000,,2013-08-15 22:29:00,
2013-08-15 15:33:00,-999.0,-99.9,-100.00,WNW,288,1.0,5.0,88,0.00,,,0.07,166.000000,,2013-08-15 22:33:00,
2013-08-15 15:58:00,65.0,61.0,-100.00,WNW,288,1.0,5.0,88,0.00,,,0.07,166.000000,,2013-08-15 22:58:00,
2013-08-15 16:07:00,65.0,61.0,-100.00,WNW,288,1.0,5.0,88,0.00,,,0.07,166.000000,,2013-08-15 23:07:00,
2013-08-15 16:16:00,65.0,61.0,-100.00,WNW,288,1.0,5.0,88,0.00,,,0.07,166.000000,,2013-08-15 23:16:00,
2013-08-15 16:33:00,67.0,62.0,-100.00,West,277,1.0,6.0,83,0.00,,,0.07,247.000000,,2013-08-15 23:33:00,
2013-08-15 16:55:00,67.0,62.0,-100.00,West,277,1.0,6.0,83,0.00,,,0.07,247.000000,,2013-08-15 23:55:00,
2013-08-15 17:08:00,67.0,62.0,-100.00,West,277,1.0,6.0,83,0.00,,,0.07,247.000000,,2013-08-16 00:08:00,
2013-08-15 17:24:00,67.0,62.0,-100.00,West,277,1.0,6.0,83,0.00,,,0.07,247.000000,,2013-08-16 00:24:00,
2013-08-15 17:33:00,-999.0,-99.9,-100.00,WSW,258,2.0,-999.0,-999,-99.99,,,-99.99,,,2013-08-16 00:33:00,
2013-08-15 17:52:00,69.0,61.0,-100.00,WSW,258,2.0,7.0,76,0.00,,,0.07,267.000000,,2013-08-16 00:52:00,
2013-08-15 18:04:00,69.0,61.0,-100.00,WSW,258,2.0,7.0,76,0.00,,,0.07,267.000000,,2013-08-16 01:04:00,
2013-08-15 18:26:00,69.0,61.0,-100.00,WSW,258,2.0,7.0,76,0.00,,,0.07,267.000000,,2013-08-16 01:26:00,
2013-08-15 18:54:00,67.0,60.0,-100.00,West,265,2.0,8.0,78,0.00,,,0.07,191.000000,,2013-08-16 01:54:00,
2013-08-15 19:02:00,67.0,60.0,-100.00,West,265,2.0,8.0,78,0.00,,,0.07,191.000000,,2013-08-16 02:02:00,
2013-08-15 19:12:00,67.0,60.0,-100.00,West,265,2.0,8.0,78,0.00,,,0.07,191.000000,,2013-08-16 02:12:00,
2013-08-15 19:21:00,67.0,60.0,-100.00,West,265,2.0,8.0,78,0.00,,,0.07,191.000000,,2013-08-16 02:21:00,
2013-08-15 19:32:00,67.0,60.0,-100.00,West,265,2.0,8.0,78,0.00,,,0.07,191.000000,,2013-08-16 02:32:00,
2013-08-15 19:33:00,65.0,59.0,-100.00,West,267,1.0,7.0,82,0.00,,,0.06,90.000000,,2013-08-16 02:33:00,
2013-08-15 19:52:00,65.0,59.0,-100.00,West,267,1.0,7.0,82,0.00,,,0.06,90.000000,,2013-08-16 02:52:00,
2013-08-15 20:03:00,65.0,59.0,-100.00,West,267,1.0,7.0,82,0.00,,,0.06,90.000000,,2013-08-16 03:03:00,
2013-08-15 20:11:00,65.0,59.0,-100.00,West,267,1.0,7.0,82,0.00,,,0.06,90.000000,,2013-08-16 03:11:00,
2013-08-15 20:21:00,65.0,59.0,-100.00,West,267,1.0,7.0,82,0.00,,,0.06,90.000000,,2013-08-16 03:21:00,
2013-08-15 20:33:00,63.0,60.0,-100.00,West,264,1.0,8.0,89,0.00,,,0.05,27.000000,,2013-08-16 03:33:00,
2013-08-15 20:53:00,63.0,60.0,-100.00,West,264,1.0,8.0,89,0.00,,,0.05,27.000000,,2013-08-16 03:53:00,
2013-08-15 21:03:00,63.0,60.0,-100.00,West,264,1.0,8.0,89,0.00,,,0.05,27.000000,,2013-08-16 04:03:00,
2013-08-15 21:13:00,63.0,60.0,-100.00,West,264,1.0,8.0,89,0.00,,,0.05,27.000000,,2013-08-16 04:13:00,
2013-08-15 21:23:00,63.0,60.0,-100.00,West,264,1.0,8.0,89,0.00,,,0.05,27.000000,,2013-08-16 04:23:00,
2013-08-15 21:53:00,61.0,57.0,-100.00,West,278,0.0,5.0,88,0.00,,,0.05,1.000000,,2013-08-16 04:53:00,
2013-08-15 22:02:00,61.0,57.0,-100.00,West,278,0.0,5.0,88,0.00,,,0.05,1.000000,,2013-08-16 05:02:00,
2013-08-15 22:11:00,61.0,57.0,-100.00,West,278,0.0,5.0,88,0.00,,,0.05,1.000000,,2013-08-16 05:11:00,
2013-08-15 22:21:00,61.0,57.0,-100.00,West,278,0.0,5.0,88,0.00,,,0.05,1.000000,,2013-08-16 05:21:00,
2013-08-15 22:31:00,61.0,57.0,-100.00,West,278,0.0,5.0,88,0.00,,,0.05,1.000000,,2013-08-16 05:31:00,